R/V Knorr Calliope CSV data file - KN193_II  (Time stamps are GMT)
Date, Time_GMT, Depth12, Depth35, Air_Temp, WXT5_Ta, WXT5_Pa, dec_lat, dec_lon, EDO_knt, GPS_COG, GPS_SOG, Gyro, IMET_BPR, IMET_SWR, WXT5_Ri, WXT5_Rc, HRH, WXT5_Ua, WXT5_Dm, WXT5_Sm, SBE45C, SBE45S, SBE45T, Salinity, SSCND, Fluorometer, SSTMP, SSV, Wnd_Dir, TWD_5, Wnd_Spd, TWS_5, HdChkSum=52
2008/04/23, 00:00:43, 138.00, 0.00, 5.96, 6.30, 1012.3, 63.8109100, -15.4407920, , 232.60, 12.61, 233.70, 1013.02, 0.10, 0.0, 39.46, 89.26, 92.5, 189, 5.6, 36.98960, 34.72750, 9.1100, 34.7275, 36.9896, 456.00, 7.2241, 1479.17, 47.40, 58.0, 9.09, 11.9, 52
2008/04/23, 00:01:43, 123.70, 0.00, 5.88, 6.20, 1012.3, 63.8089820, -15.4472070, , 238.80, 12.21, 235.30, 1012.87, 0.20, 0.0, 39.46, 89.18, 92.2, 207, 3.3, 36.90260, 34.72120, 9.0233, 34.7212, 36.9026, 447.00, 7.2330, 1479.20, 47.30, 62.5, 9.85, 9.5, 52
2008/04/23, 00:02:43, 131.00, 0.00, 5.85, 6.20, 1012.5, 63.8070420, -15.4534930, , 233.40, 11.98, 232.50, 1013.08, 0.10, 0.0, 39.46, 89.18, 92.3, 185, 6.4, 36.83120, 34.71010, 8.9580, 34.7101, 36.8312, 442.50, 7.2362, 1479.21, 48.40, 55.4, 8.57, 12.6, 52
2008/04/23, 00:03:44, 136.50, 0.00, 5.85, 6.20, 1012.2, 63.8050650, -15.4598900, , 237.40, 11.60, 234.40, 1012.89, -0.20, 0.0, 39.46, 89.21, 92.3, 186, 6.9, 36.75460, 34.68190, 8.9047, 34.6819, 36.7546, 484.30, 7.2487, 1479.23, 47.20, 56.2, 9.82, 13.0, 52
2008/04/23, 00:04:43, 139.10, 0.00, 5.85, 6.10, 1012.1, 63.8031080, -15.4661030, , 241.40, 12.97, 233.40, 1012.84, -0.10, 0.0, 39.46, 89.21, 92.2, 190, 6.7, 36.69770, 34.65710, 8.8688, 34.6571, 36.6977, 570.00, 7.2765, 1479.30, 46.10, 55.6, 11.36, 13.5, 52
2008/04/23, 00:05:43, 142.30, 0.00, 5.74, 6.10, 1012.3, 63.8011150, -15.4723680, , 233.50, 12.00, 234.80, 1012.77, -0.20, 0.0, 39.46, 89.30, 92.4, 190, 6.3, 36.65040, 34.64790, 8.8273, 34.6479, 36.6504, 604.00, 7.3153, 1479.42, 48.80, 58.3, 9.39, 12.3, 52
2008/04/23, 00:06:43, 136.10, 0.00, 5.88, 6.10, 1012.3, 63.7991250, -15.4787420, , 240.70, 12.20, 235.50, 1012.89, -0.10, 0.0, 39.46, 89.28, 92.5, 199, 4.7, 36.67820, 34.67510, 8.8294, 34.6751, 36.6782, 580.80, 7.3611, 1479.62, 46.90, 58.5, 9.51, 10.6, 52
2008/04/23, 00:07:43, 125.30, 0.00, 5.79, 6.10, 1012.0, 63.7971480, -15.4851730, , 229.70, 12.21, 234.90, 1012.84, 0.00, 0.0, 39.46, 89.26, 92.4, 189, 6.4, 36.70010, 34.70250, 8.8250, 34.7025, 36.7001, 522.70, 7.4084, 1479.84, 49.40, 58.9, 10.34, 12.7, 52
2008/04/23, 00:08:44, 120.40, 0.00, 5.82, 6.10, 1012.3, 63.7951820, -15.4915880, , 233.80, 12.01, 234.40, 1012.84, -0.10, 0.0, 39.46, 89.33, 92.4, 198, 4.4, 36.72040, 34.70910, 8.8401, 34.7091, 36.7204, 464.80, 7.4507, 1480.02, 51.50, 63.9, 9.74, 10.6, 52
2008/04/23, 00:09:43, 113.80, 0.00, 5.82, 6.10, 1012.4, 63.7932170, -15.4979530, , 237.00, 12.67, 233.80, 1012.95, 0.20, 0.0, 39.46, 89.28, 92.5, 190, 6.8, 36.71350, 34.70230, 8.8397, 34.7023, 36.7135, 424.40, 7.4993, 1480.20, 47.00, 57.3, 9.96, 13.5, 52
2008/04/23, 00:10:44, 117.00, 0.00, 5.79, 6.10, 1012.2, 63.7911650, -15.5043150, , 227.70, 11.98, 232.70, 1012.64, -0.10, 0.0, 39.46, 89.26, 92.5, 200, 4.2, 36.71560, 34.69430, 8.8500, 34.6943, 36.7156, 388.40, 7.5736, 1480.47, 48.60, 57.4, 10.14, 10.8, 52
2008/04/23, 00:11:43, 113.50, 0.00, 5.79, 6.20, 1012.2, 63.7891520, -15.5105380, , 229.00, 13.00, 234.20, 1012.83, 0.20, 0.0, 39.46, 89.28, 92.6, 183, 8.0, 36.72670, 34.67120, 8.8856, 34.6712, 36.7267, 364.90, 7.6502, 1480.75, 57.40, 56.2, 9.03, 14.7, 52
2008/04/23, 00:12:43, 116.60, 0.00, 5.77, 6.10, 1012.1, 63.7872420, -15.5169880, , 237.60, 12.37, 233.40, 1012.87, 0.10, 0.0, 39.46, 89.30, 92.4, 183, 8.3, 36.70650, 34.65470, 8.8807, 34.6547, 36.7065, 370.70, 7.7186, 1480.98, 53.00, 56.7, 11.11, 15.1, 52
2008/04/23, 00:13:43, 115.30, 0.00, 5.82, 6.10, 1012.4, 63.7852270, -15.5231630, , 228.60, 13.33, 235.60, 1012.89, 0.10, 0.0, 39.46, 89.21, 92.4, 194, 5.9, 36.76340, 34.67020, 8.9261, 34.6702, 36.7634, 349.10, 7.7808, 1481.22, 55.30, 61.9, 10.19, 12.3, 52
2008/04/23, 00:14:43, 113.80, 0.00, 5.85, 6.10, 1012.2, 63.7833170, -15.5294950, , 237.90, 12.05, 233.30, 1012.81, 0.30, 0.0, 39.46, 89.26, 92.5, 188, 6.5, 36.87360, 34.69130, 9.0228, 34.6913, 36.8736, 328.40, 7.8404, 1481.47, 48.70, 55.7, 9.56, 13.3, 52
2008/04/23, 00:15:44, 116.80, 0.00, 5.79, 6.20, 1012.0, 63.7813370, -15.5357720, , 231.20, 11.65, 235.60, 1012.87, 0.20, 0.0, 39.46, 89.18, 92.4, 188, 6.7, 36.90820, 34.71480, 9.0359, 34.7148, 36.9082, 308.90, 7.8943, 1481.71, 55.40, 61.6, 10.04, 13.0, 52
2008/04/23, 00:16:44, 117.90, 0.00, 5.88, 6.20, 1012.1, 63.7794480, -15.5421200, , 236.20, 11.65, 233.60, 1012.65, 0.10, 0.0, 39.46, 89.18, 92.4, 186, 6.8, 36.96820, 34.73380, 9.0807, 34.7338, 36.9682, 294.00, 7.9392, 1481.90, 49.70, 57.7, 10.71, 13.0, 52
2008/04/23, 00:17:43, 129.70, 0.00, 5.82, 6.20, 1012.1, 63.7775300, -15.5485830, , 237.30, 12.69, 234.80, 1012.81, 0.00, 0.0, 39.46, 89.11, 92.4, 190, 4.4, 37.04860, 34.75630, 9.1437, 34.7563, 37.0486, 268.60, 7.9745, 1482.06, 53.50, 60.8, 10.68, 11.3, 52
2008/04/23, 00:18:43, 135.90, 0.00, 5.91, 6.20, 1012.0, 63.7755880, -15.5550800, , 234.90, 13.76, 235.50, 1012.65, 0.30, 0.0, 39.46, 89.23, 92.5, 198, 5.9, 37.10290, 34.77460, 9.1830, 34.7746, 37.1029, 235.70, 7.9995, 1482.18, 49.40, 62.6, 9.91, 12.5, 52
2008/04/23, 00:19:43, 140.20, 0.00, 5.99, 6.20, 1012.0, 63.7736600, -15.5615850, , 231.90, 12.95, 234.80, 1012.67, 0.20, 0.7, 39.47, 89.18, 92.5, 190, 4.9, 37.22990, 34.81570, 9.2765, 34.8157, 37.2299, 187.50, 8.0142, 1482.28, 48.90, 56.2, 10.17, 11.5, 52
2008/04/23, 00:20:43, 144.40, 0.00, 5.99, 6.30, 1012.1, 63.7717120, -15.5680500, , 237.50, 12.73, 233.70, 1012.58, 0.40, 1.2, 39.49, 89.30, 92.6, 205, 4.6, 37.33860, 34.83690, 9.3708, 34.8369, 37.3386, 151.20, 8.0199, 1482.33, 46.50, 62.0, 10.23, 11.4, 52
2008/04/23, 00:21:43, 145.30, 0.00, 5.93, 6.30, 1012.0, 63.7698950, -15.5747500, , 240.40, 12.58, 233.90, 1012.66, 0.30, 1.0, 39.50, 89.23, 92.6, 160, 6.3, 37.41670, 34.84390, 9.4468, 34.8439, 37.4167, 136.50, 8.0222, 1482.36, 50.10, 46.0, 10.02, 12.4, 52
2008/04/23, 00:22:43, 150.70, 0.00, 5.91, 6.20, 1011.9, 63.7679570, -15.5812480, , 243.80, 12.97, 232.30, 1012.81, 0.20, 2.0, 39.54, 89.18, 92.4, 207, 4.3, 37.47980, 34.84910, 9.5087, 34.8491, 37.4798, 123.10, 8.0228, 1482.36, 48.70, 63.1, 11.09, 11.0, 52
2008/04/23, 00:23:44, 153.40, 0.00, 5.93, 6.20, 1012.0, 63.7660320, -15.5878180, , 234.10, 12.14, 233.30, 1012.62, 0.20, 0.7, 39.55, 89.23, 92.6, 169, 4.4, 37.53940, 34.85130, 9.5699, 34.8513, 37.5394, 116.70, 8.0233, 1482.37, 48.60, 48.5, 9.34, 10.8, 52
2008/04/23, 00:24:44, 158.00, 0.00, 5.79, 6.20, 1012.1, 63.7640720, -15.5944000, , 235.10, 13.02, 233.50, 1012.61, 0.10, 1.2, 39.57, 89.21, 92.6, 173, 4.0, 37.58650, 34.85460, 9.6166, 34.8546, 37.5865, 115.50, 8.0258, 1482.38, 49.50, 49.3, 10.05, 10.5, 52
2008/04/23, 00:25:44, 161.10, 0.00, 5.96, 6.20, 1012.1, 63.7621300, -15.6010050, , 233.00, 11.54, 234.20, 1012.79, 0.20, 2.3, 39.61, 89.38, 92.7, 131, 2.0, 37.61840, 34.85410, 9.6509, 34.8541, 37.6184, 113.60, 8.0298, 1482.40, 52.10, 42.7, 9.00, 7.6, 52
2008/04/23, 00:26:43, 160.40, 0.00, 5.96, 6.30, 1012.0, 63.7603080, -15.6077650, , 241.40, 11.69, 235.60, 1012.64, 0.10, 1.0, 39.62, 89.35, 92.9, 162, 6.0, 37.64650, 34.85440, 9.6805, 34.8544, 37.6465, 112.80, 8.0328, 1482.41, 50.90, 46.7, 8.47, 11.8, 52
2008/04/23, 00:27:44, 163.00, 0.00, 5.88, 6.30, 1011.8, 63.7584770, -15.6145000, , 234.30, 12.75, 234.20, 1012.54, 0.20, 1.4, 39.65, 89.35, 92.7, 162, 5.0, 37.65750, 34.85490, 9.6917, 34.8549, 37.6575, 111.20, 8.0316, 1482.41, 49.60, 48.6, 10.53, 11.0, 52
2008/04/23, 00:28:44, 165.10, 0.00, 5.88, 6.20, 1011.7, 63.7565900, -15.6209950, , 230.10, 12.53, 233.10, 1012.52, 0.00, 1.8, 39.70, 89.40, 92.7, 179, 4.7, 37.67090, 34.85390, 9.7070, 34.8539, 37.6709, 113.00, 8.0262, 1482.39, 49.20, 53.3, 10.92, 11.1, 52
2008/04/23, 00:29:43, 164.60, 0.00, 5.88, 6.20, 1012.1, 63.7546170, -15.6274030, , 235.00, 12.52, 235.40, 1012.39, 0.00, 4.2, 39.76, 89.47, 92.8, 174, 3.8, 37.65720, 34.85020, 9.6962, 34.8502, 37.6572, 117.60, 8.0346, 1482.41, 58.00, 55.8, 9.70, 10.2, 52
2008/04/23, 00:30:43, 165.10, 0.00, 5.96, 6.20, 1012.0, 63.7527650, -15.6341230, , 240.60, 12.25, 234.40, 1012.51, 0.10, 6.6, 39.87, 89.47, 92.8, 165, 3.8, 37.65110, 34.84990, 9.6900, 34.8499, 37.6511, 116.00, 8.0541, 1482.48, 50.90, 49.4, 9.96, 10.3, 52
2008/04/23, 00:31:43, 158.00, 0.00, 5.93, 6.20, 1012.0, 63.7508020, -15.6407670, , 247.20, 13.61, 235.40, 1012.59, 0.30, 2.5, 39.92, 89.42, 92.9, 172, 4.5, 37.64000, 34.85070, 9.6775, 34.8507, 37.6400, 115.80, 8.0746, 1482.56, 52.10, 51.5, 10.10, 11.2, 52
2008/04/23, 00:32:44, 161.80, 0.00, 5.91, 6.20, 1011.9, 63.7488930, -15.6474080, , 238.10, 12.69, 234.10, 1012.46, 0.10, 2.6, 39.96, 89.54, 92.9, 164, 4.5, 37.62530, 34.84970, 9.6628, 34.8497, 37.6253, 114.80, 8.0912, 1482.62, 50.30, 47.6, 10.21, 11.0, 52
2008/04/23, 00:33:44, 156.20, 0.00, 5.96, 6.20, 1011.9, 63.7470150, -15.6541380, , 241.70, 12.95, 236.30, 1012.85, 0.40, 6.3, 40.07, 89.47, 93.0, 176, 5.2, 37.62450, 34.85070, 9.6610, 34.8507, 37.6245, 113.30, 8.1022, 1482.67, 57.70, 56.9, 9.84, 11.7, 52
2008/04/23, 00:34:44, 148.20, 0.00, 5.91, 6.20, 1012.1, 63.7450950, -15.6607570, , 238.20, 12.60, 233.40, 1012.81, 0.30, 5.3, 40.16, 89.50, 92.9, 183, 2.7, 37.62780, 34.85080, 9.6643, 34.8508, 37.6278, 113.30, 8.1074, 1482.69, 54.00, 54.5, 9.50, 9.3, 52
2008/04/23, 00:35:44, 154.90, 0.00, 5.96, 6.20, 1012.0, 63.7431570, -15.6673380, , 238.50, 13.16, 232.10, 1012.66, 0.40, 4.5, 40.23, 89.57, 93.1, 206, 2.4, 37.63330, 34.85050, 9.6706, 34.8505, 37.6333, 113.60, 8.1067, 1482.68, 55.40, 56.7, 8.07, 8.6, 52
2008/04/23, 00:36:44, 156.00, 0.00, 5.96, 6.30, 1012.0, 63.7412550, -15.6739780, , 235.10, 12.42, 233.40, 1012.79, 0.50, 2.5, 40.28, 89.57, 93.2, 171, 2.3, 37.63020, 34.85060, 9.6671, 34.8506, 37.6302, 112.30, 8.1011, 1482.66, 61.40, 54.4, 8.81, 9.1, 52
2008/04/23, 00:37:43, 160.80, 0.00, 6.10, 6.30, 1011.9, 63.7393320, -15.6805420, , 241.30, 13.07, 234.70, 1012.79, 0.50, 1.9, 40.31, 89.64, 93.2, 190, 3.4, 37.62170, 34.84970, 9.6590, 34.8497, 37.6217, 121.20, 8.0894, 1482.62, 57.20, 57.7, 7.75, 10.0, 52
2008/04/23, 00:38:43, 159.80, 0.00, 6.02, 6.40, 1012.1, 63.7374570, -15.6872150, , 238.40, 12.94, 235.40, 1012.78, 0.50, 2.8, 40.35, 89.62, 93.2, 190, 3.1, 37.62130, 34.85090, 9.6573, 34.8509, 37.6213, 133.20, 8.0789, 1482.58, 59.40, 60.2, 9.06, 9.9, 52
2008/04/23, 00:39:43, 150.00, 0.00, 6.07, 6.40, 1012.0, 63.7356320, -15.6938930, , 236.00, 12.61, 234.10, 1012.58, 0.50, 3.4, 40.40, 89.67, 93.2, 197, 3.2, 37.65260, 34.85410, 9.6873, 34.8541, 37.6526, 131.60, 8.0670, 1482.54, 60.10, 59.9, 9.07, 9.8, 52
2008/04/23, 00:40:43, 172.80, 0.00, 5.96, 6.40, 1011.9, 63.7337630, -15.7005700, , 234.70, 12.69, 233.60, 1012.60, 0.30, 1.1, 40.42, 89.52, 93.1, 213, 4.0, 37.67810, 34.85550, 9.7129, 34.8555, 37.6781, 124.30, 8.0567, 1482.50, 63.50, 68.0, 9.59, 10.1, 52
2008/04/23, 00:41:43, 183.20, 0.00, 5.82, 6.30, 1012.0, 63.7319180, -15.7072950, , 240.20, 12.74, 234.10, 1012.60, 0.30, 1.4, 40.45, 89.33, 92.7, 201, 2.6, 37.69940, 34.85580, 9.7354, 34.8558, 37.6994, 116.70, 8.0473, 1482.47, 62.40, 58.9, 9.41, 9.1, 52
2008/04/23, 00:42:43, 187.10, 0.00, 5.99, 6.20, 1011.9, 63.7300080, -15.7139100, , 231.20, 12.96, 234.00, 1012.41, 0.00, 2.9, 40.51, 89.23, 92.7, 203, 1.7, 37.70560, 34.85640, 9.7413, 34.8564, 37.7056, 113.00, 8.0376, 1482.43, 63.20, 63.5, 8.09, 8.4, 52
2008/04/23, 00:43:43, 194.90, 0.00, 6.16, 6.30, 1011.8, 63.7281300, -15.7205620, , 237.30, 12.07, 235.30, 1012.45, 0.20, 5.4, 40.59, 89.14, 92.9, 172, 3.6, 37.70540, 34.85490, 9.7426, 34.8549, 37.7054, 106.40, 8.0270, 1482.39, 61.20, 54.9, 7.97, 9.9, 52
2008/04/23, 00:44:43, 205.80, 0.00, 6.18, 6.40, 1011.8, 63.7263100, -15.7273470, , 243.90, 13.40, 233.40, 1012.47, 0.40, 3.5, 40.68, 89.16, 92.9, 138, 4.2, 37.70350, 34.85410, 9.7414, 34.8541, 37.7035, 104.40, 8.0221, 1482.37, 51.80, 38.1, 9.11, 10.3, 52
2008/04/23, 00:45:43, 213.20, 0.00, 6.04, 6.40, 1011.9, 63.7244430, -15.7341800, , 240.50, 13.04, 234.70, 1012.47, 0.40, 6.3, 40.76, 89.09, 92.8, 149, 4.6, 37.68900, 34.85360, 9.7265, 34.8536, 37.6890, 103.40, 8.0188, 1482.36, 52.40, 42.2, 9.88, 11.0, 52
2008/04/23, 00:46:43, 213.70, 0.00, 5.99, 6.40, 1011.6, 63.7226020, -15.7410300, , 241.20, 13.39, 234.50, 1012.37, 0.40, 2.9, 40.80, 89.09, 92.7, 165, 3.4, 37.67050, 34.85200, 9.7085, 34.8520, 37.6705, 103.70, 8.0147, 1482.34, 50.10, 50.9, 9.23, 9.7, 52
2008/04/23, 00:47:43, 211.10, 0.00, 5.99, 6.30, 1011.7, 63.7207330, -15.7477000, , 232.50, 12.92, 234.50, 1012.48, 0.10, 2.3, 40.84, 89.09, 92.6, 207, 1.9, 37.64380, 34.85150, 9.6806, 34.8515, 37.6438, 103.70, 8.0126, 1482.33, 59.00, 65.6, 8.50, 8.4, 52
2008/04/23, 00:48:43, 218.80, 0.00, 6.13, 6.30, 1012.0, 63.7188900, -15.7545000, , 235.50, 13.58, 233.70, 1012.45, 0.20, 1.4, 40.86, 89.04, 92.6, 180, 2.5, 37.64370, 34.85100, 9.6811, 34.8510, 37.6437, 104.60, 8.0115, 1482.33, 59.90, 58.2, 7.97, 9.1, 52
2008/04/23, 00:49:43, 218.90, 0.00, 6.04, 6.40, 1011.8, 63.7170200, -15.7612430, , 241.40, 12.63, 234.20, 1012.52, 0.40, 0.0, 40.86, 89.04, 92.6, 157, 5.2, 37.62080, 34.85050, 9.6573, 34.8505, 37.6208, 103.70, 8.0109, 1482.32, 57.00, 47.9, 9.45, 11.6, 52
2008/04/23, 00:50:43, 217.60, 0.00, 5.91, 6.30, 1011.7, 63.7151480, -15.7679400, , 238.20, 12.64, 233.40, 1012.54, 0.20, 0.0, 40.86, 88.72, 92.1, 167, 2.0, 37.61050, 34.85060, 9.6462, 34.8506, 37.6105, 102.50, 8.0098, 1482.32, 48.40, 51.9, 10.29, 8.8, 52
2008/04/23, 00:51:43, 213.90, 0.00, 5.96, 6.20, 1011.6, 63.7133320, -15.7747820, , 239.20, 12.35, 232.70, 1012.45, -0.10, 0.1, 40.87, 88.65, 92.1, 166, 3.4, 37.60920, 34.85110, 9.6443, 34.8511, 37.6092, 102.80, 8.0081, 1482.31, 53.70, 51.6, 9.40, 10.0, 52
2008/04/23, 00:52:43, 213.20, 0.00, 5.93, 6.30, 1011.8, 63.7115480, -15.7815920, , 241.00, 12.72, 234.30, 1012.53, 0.10, 0.1, 40.87, 88.58, 92.1, 179, 3.9, 37.58980, 34.85030, 9.6245, 34.8503, 37.5898, 104.40, 8.0063, 1482.31, 57.10, 55.7, 8.23, 10.4, 52
2008/04/23, 00:53:43, 210.60, 0.00, 5.82, 6.30, 1011.7, 63.7096870, -15.7882980, , 239.40, 12.56, 235.60, 1012.31, 0.00, 0.0, 40.87, 88.03, 91.7, 202, 4.2, 37.58440, 34.84960, 9.6194, 34.8496, 37.5844, 103.40, 8.0063, 1482.31, 61.90, 64.1, 9.32, 10.4, 52
2008/04/23, 00:54:43, 208.40, 0.00, 5.99, 6.20, 1011.4, 63.7078780, -15.7951100, , 229.90, 13.13, 232.90, 1012.31, -0.30, 0.1, 40.87, 87.66, 91.3, 205, 3.3, 37.58930, 34.84950, 9.6248, 34.8495, 37.5893, 101.60, 8.0103, 1482.32, 67.20, 69.4, 8.68, 9.8, 52
2008/04/23, 00:55:43, 203.10, 0.00, 6.07, 6.30, 1011.7, 63.7060520, -15.8019630, , 241.10, 12.90, 236.60, 1012.36, 0.00, 0.1, 40.87, 87.30, 91.2, 172, 1.4, 37.58640, 34.85060, 9.6205, 34.8506, 37.5864, 100.40, 8.0188, 1482.35, 65.70, 57.1, 9.39, 8.4, 52
2008/04/23, 00:56:43, 204.70, 0.00, 6.21, 6.40, 1011.7, 63.7043570, -15.8090400, , 239.90, 13.33, 237.30, 1012.27, 0.20, 0.0, 40.87, 87.32, 91.2, 161, 4.1, 37.58440, 34.84910, 9.6200, 34.8491, 37.5844, 98.00, 8.0347, 1482.41, 60.10, 52.5, 8.64, 10.5, 52
2008/04/23, 00:57:43, 205.40, 0.00, 6.16, 6.40, 1011.5, 63.7026700, -15.8161720, , 243.40, 13.51, 237.50, 1012.27, 0.30, 0.0, 40.87, 86.84, 90.6, 164, 5.0, 37.58460, 34.85030, 9.6189, 34.8503, 37.5846, 97.60, 8.0493, 1482.47, 57.20, 51.0, 9.15, 11.2, 52
2008/04/23, 00:58:44, 209.30, 0.00, 6.10, 6.40, 1011.3, 63.7009580, -15.8232720, , 240.70, 13.28, 234.10, 1012.03, 0.00, 0.0, 40.87, 86.72, 90.1, 148, 5.4, 37.57800, 34.85030, 9.6120, 34.8503, 37.5780, 97.30, 8.0608, 1482.51, 52.80, 44.1, 10.05, 11.3, 52
2008/04/23, 00:59:43, 203.90, 0.00, 6.10, 6.40, 1011.4, 63.6991780, -15.8302700, , 243.50, 13.71, 235.60, 1012.20, 0.00, 0.0, 40.87, 86.72, 90.0, 157, 4.1, 37.58320, 34.85030, 9.6174, 34.8503, 37.5832, 98.00, 8.0661, 1482.53, 49.80, 50.6, 10.09, 10.4, 52
2008/04/23, 01:00:43, 200.30, 0.00, 6.10, 6.40, 1011.5, 63.6975050, -15.8372700, , 240.10, 12.33, 235.90, 1012.09, 0.10, 0.0, 40.87, 86.84, 90.2, 153, 4.5, 37.58210, 34.84980, 9.6168, 34.8498, 37.5821, 99.50, 8.0659, 1482.53, 48.20, 46.2, 9.09, 10.3, 52
2008/04/23, 01:01:44, 195.60, 0.00, 6.16, 6.50, 1011.3, 63.6957480, -15.8441680, , 236.90, 13.05, 234.80, 1011.99, 0.10, 0.0, 40.87, 87.10, 90.5, 163, 4.3, 37.57540, 34.84930, 9.6102, 34.8493, 37.5754, 101.20, 8.0560, 1482.49, 55.40, 55.5, 9.33, 11.0, 52
2008/04/23, 01:02:44, 185.20, 0.00, 6.18, 6.50, 1011.2, 63.6939480, -15.8510680, , 245.00, 12.19, 236.70, 1012.08, 0.10, 0.0, 40.87, 87.44, 90.2, 150, 4.4, 37.58010, 34.84960, 9.6149, 34.8496, 37.5801, 105.20, 8.0461, 1482.46, 50.60, 46.2, 9.07, 10.4, 52
2008/04/23, 01:03:44, 180.70, 0.00, 6.16, 6.40, 1011.2, 63.6922230, -15.8580520, , 247.40, 13.05, 236.50, 1011.91, -0.10, 0.0, 40.87, 87.49, 90.3, 158, 4.8, 37.58830, 34.85020, 9.6230, 34.8502, 37.5883, 110.10, 8.0467, 1482.46, 45.70, 47.7, 9.46, 11.0, 52
2008/04/23, 01:04:44, 180.10, 0.00, 6.07, 6.40, 1011.4, 63.6904550, -15.8649000, , 243.60, 12.65, 237.40, 1011.73, -0.10, 0.0, 40.87, 87.54, 89.8, 159, 4.3, 37.59490, 34.85060, 9.6295, 34.8506, 37.5949, 114.00, 8.0528, 1482.48, 52.20, 48.9, 9.25, 10.5, 52
2008/04/23, 01:05:44, 180.50, 0.00, 6.10, 6.40, 1011.2, 63.6887020, -15.8717980, , 236.10, 12.96, 237.00, 1011.92, 0.30, 0.0, 40.87, 87.39, 90.3, 163, 3.4, 37.61970, 34.85220, 9.6542, 34.8522, 37.6197, 116.00, 8.0550, 1482.49, 49.50, 49.0, 9.89, 10.2, 52
2008/04/23, 01:06:43, 180.10, 0.00, 6.16, 6.50, 1011.3, 63.6869600, -15.8786500, , 240.30, 12.62, 234.40, 1011.98, 0.30, 0.0, 40.87, 87.66, 90.6, 167, 3.0, 37.63550, 34.85270, 9.6705, 34.8527, 37.6355, 114.00, 8.0475, 1482.46, 51.30, 52.6, 8.89, 9.6, 52
2008/04/23, 01:07:43, 181.00, 0.00, 6.13, 6.60, 1011.2, 63.6851850, -15.8855120, , 237.60, 13.45, 237.20, 1011.74, 0.20, 0.0, 40.87, 87.69, 90.6, 156, 3.5, 37.64670, 34.85200, 9.6832, 34.8520, 37.6467, 112.60, 8.0406, 1482.44, 54.20, 49.5, 9.25, 9.7, 52
2008/04/23, 01:08:43, 178.70, 0.00, 6.21, 6.60, 1011.4, 63.6834420, -15.8923830, , 242.10, 12.62, 236.80, 1012.15, 0.20, 0.0, 40.87, 87.76, 90.6, 159, 3.0, 37.64350, 34.85150, 9.6804, 34.8515, 37.6435, 114.00, 8.0400, 1482.43, 50.60, 48.0, 9.52, 9.6, 52
2008/04/23, 01:09:43, 174.40, 0.00, 6.24, 6.60, 1011.3, 63.6816150, -15.8991330, , 242.30, 13.51, 236.30, 1012.01, 0.30, 0.0, 40.87, 87.98, 90.8, 178, 3.6, 37.64490, 34.84980, 9.6835, 34.8498, 37.6449, 118.80, 8.0418, 1482.44, 55.10, 57.1, 9.34, 10.5, 52
2008/04/23, 01:10:43, 173.30, 0.00, 6.18, 6.60, 1011.1, 63.6797870, -15.9059420, , 239.40, 13.23, 235.80, 1011.63, 0.20, 0.0, 40.87, 87.93, 90.8, 169, 5.0, 37.61950, 34.84770, 9.6587, 34.8477, 37.6195, 118.80, 8.0447, 1482.45, 54.00, 51.3, 9.81, 11.5, 52
2008/04/23, 01:11:43, 170.30, 0.00, 6.16, 6.50, 1010.9, 63.6780130, -15.9128170, , 243.80, 12.89, 238.30, 1011.81, 0.30, 0.0, 40.87, 87.83, 90.3, 167, 4.3, 37.60340, 34.84740, 9.6420, 34.8474, 37.6034, 116.70, 8.0469, 1482.45, 52.60, 51.8, 10.58, 11.1, 52
2008/04/23, 01:12:43, 169.50, 0.00, 6.21, 6.50, 1011.2, 63.6762420, -15.9197580, , 237.10, 13.63, 235.50, 1011.83, 0.00, 0.0, 40.87, 87.86, 90.5, 165, 2.6, 37.59970, 34.85060, 9.6347, 34.8506, 37.5997, 113.00, 8.0486, 1482.46, 53.40, 52.6, 9.60, 9.1, 52
2008/04/23, 01:13:43, 168.00, 0.00, 6.13, 6.60, 1011.2, 63.6744850, -15.9266600, , 242.00, 12.63, 234.80, 1011.87, 0.20, 0.0, 40.87, 87.90, 90.9, 190, 3.7, 37.61520, 34.85150, 9.6503, 34.8515, 37.6152, 115.80, 8.0517, 1482.48, 55.90, 61.9, 8.91, 10.0, 52
2008/04/23, 01:14:43, 167.10, 0.00, 6.13, 6.60, 1011.3, 63.6727600, -15.9336770, , 237.60, 13.76, 236.20, 1011.99, 0.30, 0.0, 40.87, 87.88, 90.7, 162, 3.9, 37.62860, 34.85150, 9.6644, 34.8515, 37.6286, 126.40, 8.0567, 1482.50, 61.30, 56.8, 10.19, 10.3, 52
2008/04/23, 01:15:43, 161.00, 0.00, 6.13, 6.50, 1011.0, 63.6709780, -15.9405330, , 230.40, 12.95, 234.60, 1011.60, 0.20, 0.0, 40.87, 87.83, 90.5, 163, 3.5, 37.63140, 34.84690, 9.6722, 34.8469, 37.6314, 142.60, 8.0631, 1482.52, 54.70, 53.6, 9.68, 10.0, 52
2008/04/23, 01:16:43, 153.60, 0.00, 6.21, 6.50, 1010.8, 63.6691770, -15.9474630, , 236.40, 13.21, 234.80, 1011.72, 0.20, 0.0, 40.87, 87.73, 90.6, 170, 5.8, 37.59800, 34.84610, 9.6375, 34.8461, 37.5980, 138.00, 8.0697, 1482.54, 55.00, 54.0, 9.29, 12.1, 52
2008/04/23, 01:17:43, 145.80, 0.00, 6.21, 6.50, 1011.1, 63.6673530, -15.9543270, , 239.10, 12.72, 236.10, 1011.75, 0.30, 0.0, 40.87, 87.64, 90.4, 169, 2.9, 37.59360, 34.84860, 9.6303, 34.8486, 37.5936, 125.20, 8.0764, 1482.57, 54.00, 54.1, 10.43, 9.6, 52
2008/04/23, 01:18:43, 138.90, 0.00, 6.52, 6.60, 1010.9, 63.6655280, -15.9612380, , 236.70, 13.03, 236.50, 1011.83, 0.50, 0.9, 40.89, 87.73, 90.5, 174, 3.0, 37.59770, 34.84980, 9.6334, 34.8498, 37.5977, 118.50, 8.0829, 1482.59, 58.20, 54.8, 8.23, 9.6, 52
2008/04/23, 01:19:43, 134.10, 0.00, 6.52, 6.60, 1011.1, 63.6637570, -15.9681950, , 241.10, 12.75, 235.50, 1011.63, 0.40, 0.3, 40.90, 87.73, 90.7, 177, 1.8, 37.60070, 34.84910, 9.6373, 34.8491, 37.6007, 114.30, 8.0870, 1482.61, 60.70, 58.5, 8.28, 8.6, 52
2008/04/23, 01:20:44, 130.40, 0.00, 6.63, 6.70, 1011.0, 63.6619200, -15.9751070, , 239.30, 13.11, 233.50, 1011.89, 0.50, 0.8, 40.91, 87.93, 90.9, 195, 2.3, 37.60670, 34.84940, 9.6434, 34.8494, 37.6067, 111.20, 8.0902, 1482.62, 60.40, 61.4, 7.65, 8.7, 52
2008/04/23, 01:21:43, 125.90, 0.00, 6.46, 6.70, 1011.0, 63.6600530, -15.9819450, , 238.80, 12.47, 235.50, 1011.65, 0.40, 0.4, 40.92, 87.95, 90.8, 211, 3.8, 37.60630, 34.84950, 9.6429, 34.8495, 37.6063, 109.80, 8.0918, 1482.63, 65.20, 65.7, 9.32, 10.1, 52
2008/04/23, 01:22:43, 123.90, 0.00, 6.35, 6.70, 1011.3, 63.6582470, -15.9889350, , 240.10, 12.79, 236.30, 1011.81, 0.50, 0.2, 40.92, 87.88, 90.7, 225, 2.9, 37.61170, 34.85030, 9.6477, 34.8503, 37.6117, 110.90, 8.0874, 1482.61, 66.50, 68.6, 8.75, 9.0, 52
2008/04/23, 01:23:43, 124.60, 0.00, 6.38, 6.70, 1011.0, 63.6564630, -15.9958950, , 235.90, 13.74, 235.30, 1011.69, 0.60, 0.5, 40.93, 87.90, 90.9, 223, 5.0, 37.61940, 34.85240, 9.6537, 34.8524, 37.6194, 111.20, 8.0764, 1482.57, 73.40, 74.7, 8.64, 11.2, 52
2008/04/23, 01:24:43, 121.60, 0.00, 6.43, 6.70, 1011.0, 63.6546420, -16.0026830, , 242.90, 12.54, 236.80, 1012.05, 0.30, 1.4, 40.96, 88.07, 90.8, 230, 5.8, 37.62600, 34.85190, 9.6614, 34.8519, 37.6260, 113.00, 8.0543, 1482.49, 81.10, 78.6, 10.27, 11.9, 52
2008/04/23, 01:25:43, 120.00, 0.00, 6.21, 6.70, 1011.1, 63.6528430, -16.0095430, , 246.60, 12.63, 237.60, 1011.75, 0.30, 3.4, 41.01, 87.93, 90.5, 236, 4.2, 37.66150, 34.85280, 9.6981, 34.8528, 37.6615, 112.80, 8.0279, 1482.39, 83.20, 79.2, 8.98, 9.5, 52
2008/04/23, 01:26:43, 119.60, 0.00, 6.13, 6.60, 1011.0, 63.6510780, -16.0163350, , 234.60, 12.22, 235.40, 1011.72, 0.40, 0.7, 41.02, 87.76, 90.1, 236, 4.4, 37.65630, 34.85390, 9.6915, 34.8539, 37.6563, 113.30, 8.0066, 1482.31, 78.40, 76.9, 8.64, 10.0, 52
2008/04/23, 01:27:43, 120.30, 0.00, 6.41, 6.60, 1011.0, 63.6492800, -16.0230570, , 240.00, 13.32, 236.30, 1011.74, 0.20, 0.1, 41.03, 87.42, 90.3, 228, 5.2, 37.65320, 34.85420, 9.6879, 34.8542, 37.6532, 112.30, 7.9892, 1482.25, 80.80, 77.6, 9.57, 10.7, 52
2008/04/23, 01:28:43, 117.10, 0.00, 6.10, 6.60, 1011.0, 63.6474750, -16.0299150, , 237.70, 12.91, 235.40, 1011.75, 0.30, 0.3, 41.03, 87.30, 90.2, 226, 4.0, 37.65980, 34.85370, 9.6954, 34.8537, 37.6598, 111.20, 7.9716, 1482.18, 79.10, 76.4, 9.08, 9.9, 52
2008/04/23, 01:29:43, 115.80, 0.00, 6.32, 6.60, 1010.9, 63.6456930, -16.0367850, , 238.70, 12.45, 235.90, 1011.58, 0.20, 1.4, 41.06, 87.47, 90.3, 218, 4.8, 37.65560, 34.85480, 9.6898, 34.8548, 37.6556, 111.50, 7.9552, 1482.12, 72.60, 69.8, 8.66, 10.6, 52
2008/04/23, 01:30:43, 117.90, 0.00, 6.24, 6.60, 1010.9, 63.6438480, -16.0435480, , 233.40, 13.12, 236.40, 1011.78, 0.20, 0.2, 41.06, 87.44, 90.3, 218, 4.5, 37.65250, 34.85460, 9.6866, 34.8546, 37.6525, 115.20, 7.9386, 1482.06, 75.20, 73.5, 10.07, 11.1, 52
2008/04/23, 01:31:43, 116.80, 0.00, 6.16, 6.60, 1010.9, 63.6420150, -16.0503120, , 235.70, 12.67, 237.10, 1011.69, 0.10, 0.2, 41.06, 87.52, 90.2, 215, 3.4, 37.64660, 34.85310, 9.6820, 34.8531, 37.6466, 122.80, 7.9070, 1481.94, 72.30, 71.6, 9.12, 9.6, 52